Weather observations for the past three days for
Tucson, Tucson International Airport
Imperial (Metric)
Date Time (mst) Wind (mph) Vis. (mi.) Weather Sky Cond. Temperature (ºF) Relative Humidity Wind Chill (°F) Heat Index (°F) Pressure Precipitation (in)
Air Dwpt 6 hour altimeter (in) sea level (mb) 1 hr 3 hr 6 hr
Max. Min.
18 08:53 S 10 10.00 Fair CLR 88 32 13% 84 29.8 1003.5
18 07:53 S 9 10.00 Fair CLR 82.9 28.9 14% 80 29.8 1003.4
18 06:53 E 7 10.00 Fair CLR 80.1 30.9 17% 78 29.78 1003.0
18 05:53 SE 7 G 20 10.00 Fair CLR 75.9 37 25% 77 29.77 1002.5
18 04:53 SE 6 10.00 Fair CLR 75 35.1 86 75 23% 76 29.75 1001.7
18 03:53 SE 6 10.00 Fair CLR 80.1 36 20% 79 29.74 1001.2
18 02:53 E 3 10.00 Fair CLR 77 39.9 26% 77 29.73 1001.0
18 01:53 W 5 10.00 Fair CLR 79 39.9 25% 78 29.72 1000.7
18 00:53 W 8 10.00 Fair CLR 82 39.9 22% 80 29.72 1000.6
17 23:53 W 9 10.00 Fair CLR 82.9 39 21% 81 29.73 1000.8
17 22:53 W 8 10.00 Fair CLR 87.1 37.9 102.9 87.1 18% 84 29.72 1000.4
17 21:53 W 7 10.00 Fair CLR 87.1 35.1 16% 84 29.7 1000.1
17 20:53 W 10 10.00 Fair CLR 91.9 37 14% 88 29.68 999.1
17 19:53 W 10 10.00 Fair CLR 95 37.9 14% 90 29.66 998.4
17 18:53 SW 18 G 31 10.00 Fair CLR 98.1 36 11% 93 29.64 998.0
17 17:53 SW 18 G 28 10.00 Fair CLR 100.9 33.1 9% 95 29.63 997.6
17 16:53 SW 21 G 28 10.00 Fair and Breezy CLR 102.9 28 105.1 99 7% 97 29.63 997.5
17 15:53 SW 18 G 30 10.00 Fair CLR 104 28.9 7% 98 29.65 998.0
17 14:53 SW 15 G 32 10.00 Fair CLR 102.9 33.1 9% 97 29.67 998.6
17 13:53 S 18 G 31 10.00 Fair CLR 102 28 7% 96 29.69 999.4
17 12:53 S 21 G 29 10.00 Fair and Breezy CLR 100.9 24.1 6% 95 29.71 1000.1
17 11:53 SW 20 G 29 10.00 Fair CLR 100 26.1 7% 94 29.73 1000.6
17 10:53 S 17 G 28 10.00 Fair CLR 100 23 100 77 6% 94 29.73 1000.6
17 09:53 S 12 G 23 10.00 Fair CLR 95 34 12% 90 29.75 1001.3
17 08:53 SE 6 10.00 Fair CLR 91 37.9 15% 87 29.75 1001.6
17 07:53 SE 6 10.00 Fair CLR 86 41 20% 83 29.76 1001.9
17 06:53 SE 7 10.00 Fair CLR 81 39 22% 79 29.75 1001.5
17 05:53 SE 10 10.00 Fair CLR 77 39 26% 77 29.74 1001.3
17 04:53 SE 7 10.00 Fair CLR 79 37 91 78.1 22% 78 29.74 1001.0
17 03:53 E 9 10.00 Fair CLR 78.1 36 22% 78 29.73 1000.8
17 02:53 SE 5 10.00 Fair CLR 82.9 36 19% 80 29.73 1000.7
17 01:53 S 6 10.00 Fair CLR 82 37.9 21% 80 29.73 1000.9
17 00:53 SE 5 10.00 Fair CLR 82.9 41 23% 81 29.74 1001.1
16 23:53 SE 5 10.00 Fair CLR 87.1 39 18% 84 29.74 1001.2
16 22:53 Calm 10.00 Fair CLR 89.1 39.9 106 89.1 18% 85 29.75 1001.3
16 21:53 W 5 10.00 Fair CLR 91 39.9 17% 87 29.74 1001.1
16 20:53 W 10 10.00 Fair CLR 93.9 39 15% 90 29.72 1000.6
16 19:53 W 12 G 21 10.00 Fair CLR 98.1 33.1 10% 93 29.7 999.9
16 18:53 SW 13 10.00 Fair CLR 102 28 7% 96 29.69 999.4
16 17:53 SW 16 G 21 10.00 Fair CLR 105.1 28.9 7% 99 29.68 999.3
16 16:53 W 16 G 22 10.00 Fair CLR 106 30.9 107.1 98.1 7% 100 29.69 999.3
16 15:53 NW 9 G 22 10.00 Fair CLR 106 30.9 7% 100 29.71 1000.0
16 14:53 Calm 10.00 Fair CLR 104 32 8% 98 29.73 1000.8
16 13:53 W 10 G 18 10.00 Fair CLR 104 33.1 8% 98 29.76 1001.7
16 12:53 Calm 10.00 Fair CLR 102.9 33.1 9% 97 29.79 1002.8
16 11:53 Calm 10.00 Fair CLR 100 33.1 10% 95 29.82 1003.7
16 10:53 Calm 10.00 Fair CLR 99 34 99 72 10% 94 29.84 1004.3
16 09:53 Vrbl 3 10.00 Fair CLR 95 35.1 12% 90 29.85 1004.9
16 08:53 Vrbl 3 10.00 Fair CLR 91 37 15% 87 29.86 1005.1
16 07:53 SE 5 10.00 Fair CLR 84.9 36 17% 82 29.86 1005.3
16 06:53 SE 8 10.00 Fair CLR 80.1 35.1 20% 79 29.85 1005.1
16 05:53 SW 3 10.00 Fair CLR 73 35.1 25% 29.85 1005.1
16 04:53 SE 8 10.00 Fair CLR 79 34 91 78.1 20% 78 29.83 1004.4
16 03:53 SE 8 10.00 Fair CLR 79 33.1 19% 78 29.83 1004.2
16 02:53 SE 7 10.00 Fair CLR 81 34 18% 79 29.83 1004.2
16 01:53 SE 6 10.00 Fair CLR 82.9 34 17% 80 29.83 1004.3
16 00:53 SE 7 10.00 Fair CLR 84.9 35.1 17% 82 29.83 1004.4
15 23:53 SE 5 10.00 Fair CLR 90 34 14% 86 29.85 1004.7
15 22:53 SW 6 10.00 Fair CLR 90 34 106 90 14% 86 29.84 1004.5
15 21:53 W 13 10.00 Fair CLR 93 34 12% 89 29.82 1003.8
15 20:53 W 13 G 22 10.00 Fair CLR 96.1 33.1 11% 91 29.8 1003.1
15 19:53 N 5 10.00 Fair CLR 98.1 30.9 9% 93 29.77 1002.4
15 18:53 NW 7 10.00 Fair CLR 102.9 30 8% 97 29.77 1002.3
15 17:53 NW 6 10.00 Fair CLR 105.1 30 7% 99 29.77 1002.5
15 16:53 N 7 10.00 Fair CLR 106 30 107.1 96.1 7% 99 29.77 1002.5
15 15:53 W 14 G 20 10.00 Fair CLR 106 30 7% 99 29.79 1003.0
15 14:53 W 7 10.00 Fair CLR 105.1 30.9 7% 99 29.81 1003.7
15 13:53 Vrbl 3 10.00 Fair CLR 102.9 30 8% 97 29.83 1004.5
15 12:53 W 7 10.00 Fair CLR 100.9 30 8% 95 29.86 1005.5
15 11:53 Vrbl 3 10.00 Fair CLR 100.9 30 8% 95 29.88 1006.2
15 10:53 Calm 10.00 Fair CLR 96.1 28 98.1 70 9% 91 29.9 1006.8
15 09:53 SE 6 10.00 Fair CLR 95 28.9 9% 90 29.91 1006.9
Date Time (mst) Wind (mph) Vis. (mi.) Weather Sky Cond. Air Dwpt Max. Min. Relative Humidity Wind Chill (°F) Heat Index (°F) altimeter (in) sea level (mb) 1 hr 3 hr 6 hr
6 hour
Temperature (ºF) Pressure Precipitation (in)